Regional Weather Roundup
Issued by NWS

Home | Current Version | Previous Version | Graphics & Text | Print | Product List | Glossary On
Versions: 1 2 3 4 5 6 7 8 9 10 11 12 13 14 15 16 17 18 19 20 21 22 23 24 25 26 27 28 29 30 31 32 33 34 35 36 37 38 39 40 41 42 43 44 45 46 47 48 49 50
000
ASUS43 KLOT 132203
RWRIL

ILLINOIS REGIONAL WEATHER ROUNDUP
NATIONAL WEATHER SERVICE CHICAGO/ROMEOVILLE IL
400 PM CST WED DEC 13 2017

NOTE: "FAIR" INDICATES FEW OR NO CLOUDS BELOW 12,000 FEET WITH NO
SIGNIFICANT WEATHER AND/OR OBSTRUCTIONS TO VISIBILITY.

* THESE STATIONS ARE NOT UNDER NWS QUALITY CONTROL. THEY ALSO MAY NOT
  REPORT WEATHER SUCH AS PRECIPITATION OR FOG.

ILZ001-002-007-009-015-016-024-132300-
NORTHWEST ILLINOIS

CITY           SKY/WX    TMP DP  RH WIND       PRES   REMARKS
MOLINE         CLOUDY    38  29  70 NW25G40   29.53R WCI  27
STERLING*      CLOUDY    35  28  75 MISG      29.46R
SAVANNA*       CLOUDY    33  25  73 NW22G30   29.49R WCI  20
$$

ILZ003-004-008-010-011-017-018-132300-
NORTH CENTRAL ILLINOIS

CITY           SKY/WX    TMP DP  RH WIND       PRES   REMARKS
ROCKFORD       CLOUDY    33  23  66 NW20G28   29.42R WCI  21
FREEPORT*      CLOUDY    32  23  71 NW24G37   29.45R WCI  19
DE KALB*       CLOUDY    32  25  75 NW20G31   29.39R WCI  21
PERU*          CLOUDY    35  27  72 NW24G31   29.44R WCI  23
$$

ILZ005-006-012>014-019>023-132300-
NORTHEAST ILLINOIS

CITY           SKY/WX    TMP DP  RH WIND       PRES   REMARKS
CHICAGO-OHARE  CLOUDY    35  27  72 NW20G28   29.32R WCI  24
CHICAGO-MIDWAY CLOUDY    36  30  79 NW22G30   29.33R WCI  25
AURORA         CLOUDY    34  27  75 NW26G36   29.36R WCI  21
LANSING*       CLOUDY    35  33  92 W16G26    29.32R WCI  25
JOLIET*        CLOUDY    38  30  73 W14G28    29.37R WCI  30
WAUKEGAN       CLOUDY    33  23  66 NW13G23   29.32R WCI  24
DUPAGE AIRPORT CLOUDY    34  28  79 NW23G32   29.34R WCI  22
WHEELING       CLOUDY    35  26  69 NW18G25   29.35R WCI  24
NORTHERLY ISL    N/A     35  29  79 W15         N/A  WCI  25
$$

LMZ740>746-132300-
SOUTHERN LAKE MICHIGAN

STATION/POSITION SKY/WX   TEMP    WIND        PRES    VSBY  WAVE
                          AIR SEA DIR/SP/G                  HT/PER
                          (F)     (DEG/KT/KT) (MB)    (MI)  (FT/S)
HARRISON CRIB              36     300/ 23/ 27   N/A
BURNHAM HARBOR             35     290/ 20       N/A
CALUMET HARBOR             35     260/  7/ 11  992.0R
BURNS HARBOR               35     250/ 15/ 18  992.9R
MICHIGAN CITY              34     210/ 16/ 18   N/A
$$

ILZ025>027-034>036-040-047-049-050-058-095>099-132300-
WEST-CENTRAL ILLINOIS

CITY           SKY/WX    TMP DP  RH WIND       PRES   REMARKS
QUINCY         MOCLDY    46  32  58 NW28G38   29.62R
GALESBURG*     CLOUDY    37  32  82 W24G35    29.56R WCI  26
MACOMB*        CLOUDY    38  31  77 NW32G38   29.62R WCI  25
PITTSFIELD*    MOCLDY    47  34  60 NW15G23   29.63R
$$

ILZ028>032-037-038-041>044-048-051>054-059>061-132300-
CENTRAL ILLINOIS

CITY           SKY/WX    TMP DP  RH WIND       PRES   REMARKS
BLOOMINGTON    CLOUDY    39  32  76 W30G38    29.46R WCI  27
DECATUR        CLOUDY    43  33  68 NW23G38   29.53R
PEORIA         CLOUDY    40  31  70 NW22G33   29.52R
LACON*         CLOUDY    38  29  68 NW20G35   29.48R WCI  28
LINCOLN*       CLOUDY    42  33  71 W14G29    29.53R
SPRINGFIELD    CLOUDY    45  35  68 NW18G35   29.57R
TAYLORVILLE    CLOUDY    45  33  64 NW25G31   29.56R
$$

ILZ033-039-045-046-055>057-062-063-132300-
EAST-CENTRAL ILLINOIS

CITY           SKY/WX    TMP DP  RH WIND       PRES   REMARKS
CHAMPAIGN      CLOUDY    41  33  73 W33G47    29.46R
DANVILLE*      CLOUDY    41  34  76 W22G31    29.37R
MATTOON        CLOUDY    46  32  58 W17G23    29.49R
$$

ILZ079-100>102-132300-
SOUTHWEST ILLINOIS

CITY           SKY/WX    TMP DP  RH WIND       PRES   REMARKS
ALTON          MOCLDY    54  34  47 NW25G40   29.59R
BELLEVILLE     PTCLDY    57  30  35 W12G23    29.57R
CAHOKIA*       PTCLDY    57  29  34 NW31G43   29.60R
SPARTA*        CLEAR     55  32  41 W18       29.62R
$$

ILZ064>066-069>071-074>076-080>082-084>086-088>090-092>094-132300-
SOUTH-CENTRAL ILLINOIS

CITY           SKY/WX    TMP DP  RH WIND       PRES   REMARKS
CARBONDALE     CLEAR     52  24  33 SW10      29.62R
CAIRO*         CLEAR     51  28  41 SW12G18   29.67F
EFFINGHAM*     CLOUDY    51  31  47 SW15G23   29.53R
MARION         PTCLDY    52  23  32 SW17      29.63R
MT. VERNON     CLOUDY    55  30  38 W13G22    29.58R
CENTRALIA*     CLOUDY    55  32  43 W20G26    29.56R
SALEM*         CLOUDY    54  31  41 W14       29.55S
METROPOLIS*    CLEAR     51  27  39 SW15G21   29.66F
$$

ILZ067-068-072-073-078-083-087-091-132300-
SOUTHEAST ILLINOIS

CITY           SKY/WX    TMP DP  RH WIND       PRES   REMARKS
LAWRENCEVILLE  CLOUDY    49  25  39 SW21      29.53S
FLORA*         CLOUDY    54  31  41 W15       29.54S
HARRISBURG*    CLEAR     50  27  40 SW15G21   29.61R
ROBINSON*      CLOUDY    46  26  45 SW13      29.51S
CARMI*         PTCLDY    49  27  41 SW20G25   29.58S
$$

ABBREVIATIONS USED IN REMARKS
   TC - TEMPERATURE IN CELSIUS
  WCI - WIND CHILL INDEX
   HX - HEAT INDEX
  VSB - VISIBILITY
$$





USA.gov is the U.S. government's official web portal to all federal, state and local government web resources and services.